iso_date,epoch_date,Year,Hour,Min,DOY,POS_DOY,Lat,Lon,BP,Ts,Ta,has_bp,has_ts,has_ta,BuoyID,Buoy_Type,Buoy_Owner,Logistics,Hemisphere
2020-07-16T00:09:56Z,1594858196,2020,0,10,198.0069,198.0069,79.59146,4.95564,-999.00,-999.00,-999.0,no,no,no,300534060356590,NOMAD,AWI/USIABP,MOSAiC,North
2020-07-16T00:20:00Z,1594858801,2020,0,20,198.0139,198.0139,79.59092,4.95468,-999.00,-999.00,-999.0,no,no,no,300534060356590,NOMAD,AWI/USIABP,MOSAiC,North
2020-07-16T00:29:57Z,1594859397,2020,0,30,198.0208,198.0208,79.59041,4.9535,-999.00,-999.00,-999.0,no,no,no,300534060356590,NOMAD,AWI/USIABP,MOSAiC,North
2020-07-16T00:40:01Z,1594860002,2020,0,40,198.0278,198.0278,79.59001,4.95134,-999.00,-999.00,-999.0,no,no,no,300534060356590,NOMAD,AWI/USIABP,MOSAiC,North
2020-07-16T00:49:58Z,1594860598,2020,0,50,198.0347,198.0347,79.58975,4.94947,-999.00,-999.00,-999.0,no,no,no,300534060356590,NOMAD,AWI/USIABP,MOSAiC,North
2020-07-16T01:00:02Z,1594861203,2020,1,0,198.0417,198.0417,79.58946,4.94738,-999.00,-999.00,-999.0,no,no,no,300534060356590,NOMAD,AWI/USIABP,MOSAiC,North
2020-07-16T01:09:59Z,1594861799,2020,1,10,198.0486,198.0486,79.58907,4.94515,-999.00,-999.00,-999.0,no,no,no,300534060356590,NOMAD,AWI/USIABP,MOSAiC,North
2020-07-16T01:20:03Z,1594862404,2020,1,20,198.0556,198.0556,79.58859,4.94338,-999.00,-999.00,-999.0,no,no,no,300534060356590,NOMAD,AWI/USIABP,MOSAiC,North
2020-07-16T01:30:00Z,1594863000,2020,1,30,198.0625,198.0625,79.58817,4.94156,-999.00,-999.00,-999.0,no,no,no,300534060356590,NOMAD,AWI/USIABP,MOSAiC,North
2020-07-16T01:39:56Z,1594863596,2020,1,40,198.0694,198.0694,79.5878,4.93926,-999.00,-999.00,-999.0,no,no,no,300534060356590,NOMAD,AWI/USIABP,MOSAiC,North
2020-07-16T01:50:00Z,1594864201,2020,1,50,198.0764,198.0764,79.58755,4.93653,-999.00,-999.00,-999.0,no,no,no,300534060356590,NOMAD,AWI/USIABP,MOSAiC,North
2020-07-16T01:59:57Z,1594864797,2020,2,0,198.0833,198.0833,79.5874,4.93426,-999.00,-999.00,-999.0,no,no,no,300534060356590,NOMAD,AWI/USIABP,MOSAiC,North
2020-07-16T02:10:01Z,1594865402,2020,2,10,198.0903,198.0903,79.58719,4.9319,-999.00,-999.00,-999.0,no,no,no,300534060356590,NOMAD,AWI/USIABP,MOSAiC,North
2020-07-16T02:19:58Z,1594865998,2020,2,20,198.0972,198.0972,79.58707,4.93015,-999.00,-999.00,-999.0,no,no,no,300534060356590,NOMAD,AWI/USIABP,MOSAiC,North
2020-07-16T02:30:02Z,1594866603,2020,2,30,198.1042,198.1042,79.58686,4.92832,-999.00,-999.00,-999.0,no,no,no,300534060356590,NOMAD,AWI/USIABP,MOSAiC,North
2020-07-16T02:39:59Z,1594867199,2020,2,40,198.1111,198.1111,79.58664,4.92653,-999.00,-999.00,-999.0,no,no,no,300534060356590,NOMAD,AWI/USIABP,MOSAiC,North
2020-07-16T02:50:03Z,1594867804,2020,2,50,198.1181,198.1181,79.58643,4.92473,-999.00,-999.00,-999.0,no,no,no,300534060356590,NOMAD,AWI/USIABP,MOSAiC,North
2020-07-16T03:00:00Z,1594868400,2020,3,0,198.125,198.125,79.58623,4.92282,-999.00,-999.00,-999.0,no,no,no,300534060356590,NOMAD,AWI/USIABP,MOSAiC,North
2020-07-16T03:09:56Z,1594868996,2020,3,10,198.1319,198.1319,79.58602,4.92065,-999.00,-999.00,-999.0,no,no,no,300534060356590,NOMAD,AWI/USIABP,MOSAiC,North
2020-07-16T03:20:00Z,1594869601,2020,3,20,198.1389,198.1389,79.5859,4.91854,-999.00,-999.00,-999.0,no,no,no,300534060356590,NOMAD,AWI/USIABP,MOSAiC,North
2020-07-16T03:29:57Z,1594870197,2020,3,30,198.1458,198.1458,79.58579,4.91621,-999.00,-999.00,-999.0,no,no,no,300534060356590,NOMAD,AWI/USIABP,MOSAiC,North
2020-07-16T03:40:01Z,1594870802,2020,3,40,198.1528,198.1528,79.5856,4.91434,-999.00,-999.00,-999.0,no,no,no,300534060356590,NOMAD,AWI/USIABP,MOSAiC,North
2020-07-16T03:49:58Z,1594871398,2020,3,50,198.1597,198.1597,79.58543,4.91201,-999.00,-999.00,-999.0,no,no,no,300534060356590,NOMAD,AWI/USIABP,MOSAiC,North
2020-07-16T04:00:02Z,1594872003,2020,4,0,198.1667,198.1667,79.58527,4.90976,-999.00,-999.00,-999.0,no,no,no,300534060356590,NOMAD,AWI/USIABP,MOSAiC,North
2020-07-16T04:09:59Z,1594872599,2020,4,10,198.1736,198.1736,79.58514,4.90837,-999.00,-999.00,-999.0,no,no,no,300534060356590,NOMAD,AWI/USIABP,MOSAiC,North
2020-07-16T04:20:03Z,1594873204,2020,4,20,198.1806,198.1806,79.58507,4.90684,-999.00,-999.00,-999.0,no,no,no,300534060356590,NOMAD,AWI/USIABP,MOSAiC,North
2020-07-16T04:30:00Z,1594873800,2020,4,30,198.1875,198.1875,79.58497,4.90579,-999.00,-999.00,-999.0,no,no,no,300534060356590,NOMAD,AWI/USIABP,MOSAiC,North
2020-07-16T04:39:56Z,1594874396,2020,4,40,198.1944,198.1944,79.58487,4.90493,-999.00,-999.00,-999.0,no,no,no,300534060356590,NOMAD,AWI/USIABP,MOSAiC,North
2020-07-16T04:50:00Z,1594875001,2020,4,50,198.2014,198.2014,79.58472,4.90484,-999.00,-999.00,-999.0,no,no,no,300534060356590,NOMAD,AWI/USIABP,MOSAiC,North
2020-07-16T04:59:57Z,1594875597,2020,5,0,198.2083,198.2083,79.5845,4.90468,-999.00,-999.00,-999.0,no,no,no,300534060356590,NOMAD,AWI/USIABP,MOSAiC,North
2020-07-16T05:10:01Z,1594876202,2020,5,10,198.2153,198.2153,79.58421,4.90478,-999.00,-999.00,-999.0,no,no,no,300534060356590,NOMAD,AWI/USIABP,MOSAiC,North
2020-07-16T05:19:58Z,1594876798,2020,5,20,198.2222,198.2222,79.58386,4.90525,-999.00,-999.00,-999.0,no,no,no,300534060356590,NOMAD,AWI/USIABP,MOSAiC,North
2020-07-16T05:30:02Z,1594877403,2020,5,30,198.2292,198.2292,79.58353,4.9054,-999.00,-999.00,-999.0,no,no,no,300534060356590,NOMAD,AWI/USIABP,MOSAiC,North
2020-07-16T05:39:59Z,1594877999,2020,5,40,198.2361,198.2361,79.58318,4.90471,-999.00,-999.00,-999.0,no,no,no,300534060356590,NOMAD,AWI/USIABP,MOSAiC,North
2020-07-16T05:50:03Z,1594878604,2020,5,50,198.2431,198.2431,79.58284,4.90415,-999.00,-999.00,-999.0,no,no,no,300534060356590,NOMAD,AWI/USIABP,MOSAiC,North
2020-07-16T06:00:00Z,1594879200,2020,6,0,198.25,198.25,79.58241,4.90353,-999.00,-999.00,-999.0,no,no,no,300534060356590,NOMAD,AWI/USIABP,MOSAiC,North
2020-07-16T06:09:56Z,1594879796,2020,6,10,198.2569,198.2569,79.5818,4.90353,-999.00,-999.00,-999.0,no,no,no,300534060356590,NOMAD,AWI/USIABP,MOSAiC,North
2020-07-16T06:20:00Z,1594880401,2020,6,20,198.2639,198.2639,79.5812,4.90253,-999.00,-999.00,-999.0,no,no,no,300534060356590,NOMAD,AWI/USIABP,MOSAiC,North
2020-07-16T06:29:57Z,1594880997,2020,6,30,198.2708,198.2708,79.58066,4.90161,-999.00,-999.00,-999.0,no,no,no,300534060356590,NOMAD,AWI/USIABP,MOSAiC,North
2020-07-16T06:40:01Z,1594881602,2020,6,40,198.2778,198.2778,79.58007,4.90138,-999.00,-999.00,-999.0,no,no,no,300534060356590,NOMAD,AWI/USIABP,MOSAiC,North
2020-07-16T06:49:58Z,1594882198,2020,6,50,198.2847,198.2847,79.5795,4.90113,-999.00,-999.00,-999.0,no,no,no,300534060356590,NOMAD,AWI/USIABP,MOSAiC,North
2020-07-16T07:00:02Z,1594882803,2020,7,0,198.2917,198.2917,79.57889,4.90092,-999.00,-999.00,-999.0,no,no,no,300534060356590,NOMAD,AWI/USIABP,MOSAiC,North
2020-07-16T07:09:59Z,1594883399,2020,7,10,198.2986,198.2986,79.57831,4.90098,-999.00,-999.00,-999.0,no,no,no,300534060356590,NOMAD,AWI/USIABP,MOSAiC,North
2020-07-16T07:20:03Z,1594884004,2020,7,20,198.3056,198.3056,79.57764,4.90092,-999.00,-999.00,-999.0,no,no,no,300534060356590,NOMAD,AWI/USIABP,MOSAiC,North
2020-07-16T07:30:00Z,1594884600,2020,7,30,198.3125,198.3125,79.57699,4.901,-999.00,-999.00,-999.0,no,no,no,300534060356590,NOMAD,AWI/USIABP,MOSAiC,North
2020-07-16T07:39:56Z,1594885196,2020,7,40,198.3194,198.3194,79.5764,4.90083,-999.00,-999.00,-999.0,no,no,no,300534060356590,NOMAD,AWI/USIABP,MOSAiC,North
2020-07-16T07:50:00Z,1594885801,2020,7,50,198.3264,198.3264,79.57573,4.9008,-999.00,-999.00,-999.0,no,no,no,300534060356590,NOMAD,AWI/USIABP,MOSAiC,North
2020-07-16T07:59:57Z,1594886397,2020,8,0,198.3333,198.3333,79.57497,4.90177,-999.00,-999.00,-999.0,no,no,no,300534060356590,NOMAD,AWI/USIABP,MOSAiC,North
2020-07-16T08:10:01Z,1594887002,2020,8,10,198.3403,198.3403,79.57408,4.90267,-999.00,-999.00,-999.0,no,no,no,300534060356590,NOMAD,AWI/USIABP,MOSAiC,North
2020-07-16T08:19:58Z,1594887598,2020,8,20,198.3472,198.3472,79.5731,4.90284,-999.00,-999.00,-999.0,no,no,no,300534060356590,NOMAD,AWI/USIABP,MOSAiC,North
2020-07-16T08:30:02Z,1594888203,2020,8,30,198.3542,198.3542,79.57206,4.90278,-999.00,-999.00,-999.0,no,no,no,300534060356590,NOMAD,AWI/USIABP,MOSAiC,North
2020-07-16T08:39:59Z,1594888799,2020,8,40,198.3611,198.3611,79.5711,4.90194,-999.00,-999.00,-999.0,no,no,no,300534060356590,NOMAD,AWI/USIABP,MOSAiC,North
2020-07-16T08:50:03Z,1594889404,2020,8,50,198.3681,198.3681,79.57011,4.90097,-999.00,-999.00,-999.0,no,no,no,300534060356590,NOMAD,AWI/USIABP,MOSAiC,North
2020-07-16T09:00:00Z,1594890000,2020,9,0,198.375,198.375,79.56923,4.90043,-999.00,-999.00,-999.0,no,no,no,300534060356590,NOMAD,AWI/USIABP,MOSAiC,North
2020-07-16T09:09:56Z,1594890596,2020,9,10,198.3819,198.3819,79.56823,4.90036,-999.00,-999.00,-999.0,no,no,no,300534060356590,NOMAD,AWI/USIABP,MOSAiC,North
2020-07-16T09:20:00Z,1594891201,2020,9,20,198.3889,198.3889,79.56716,4.89994,-999.00,-999.00,-999.0,no,no,no,300534060356590,NOMAD,AWI/USIABP,MOSAiC,North
2020-07-16T09:29:57Z,1594891797,2020,9,30,198.3958,198.3958,79.56621,4.89885,-999.00,-999.00,-999.0,no,no,no,300534060356590,NOMAD,AWI/USIABP,MOSAiC,North
2020-07-16T09:40:01Z,1594892402,2020,9,40,198.4028,198.4028,79.56517,4.89724,-999.00,-999.00,-999.0,no,no,no,300534060356590,NOMAD,AWI/USIABP,MOSAiC,North
2020-07-16T09:49:58Z,1594892998,2020,9,50,198.4097,198.4097,79.56413,4.89472,-999.00,-999.00,-999.0,no,no,no,300534060356590,NOMAD,AWI/USIABP,MOSAiC,North
2020-07-16T10:00:02Z,1594893603,2020,10,0,198.4167,198.4167,79.56317,4.8926,-999.00,-999.00,-999.0,no,no,no,300534060356590,NOMAD,AWI/USIABP,MOSAiC,North
2020-07-16T10:09:59Z,1594894199,2020,10,10,198.4236,198.4236,79.56229,4.89081,-999.00,-999.00,-999.0,no,no,no,300534060356590,NOMAD,AWI/USIABP,MOSAiC,North
2020-07-16T10:20:03Z,1594894804,2020,10,20,198.4306,198.4306,79.56143,4.88911,-999.00,-999.00,-999.0,no,no,no,300534060356590,NOMAD,AWI/USIABP,MOSAiC,North
2020-07-16T10:30:00Z,1594895400,2020,10,30,198.4375,198.4375,79.5606,4.88675,-999.00,-999.00,-999.0,no,no,no,300534060356590,NOMAD,AWI/USIABP,MOSAiC,North
2020-07-16T10:39:56Z,1594895996,2020,10,40,198.4444,198.4444,79.56,4.88417,-999.00,-999.00,-999.0,no,no,no,300534060356590,NOMAD,AWI/USIABP,MOSAiC,North
2020-07-16T10:50:00Z,1594896601,2020,10,50,198.4514,198.4514,79.55937,4.88154,-999.00,-999.00,-999.0,no,no,no,300534060356590,NOMAD,AWI/USIABP,MOSAiC,North
2020-07-16T10:59:57Z,1594897197,2020,11,0,198.4583,198.4583,79.55869,4.87893,-999.00,-999.00,-999.0,no,no,no,300534060356590,NOMAD,AWI/USIABP,MOSAiC,North
2020-07-16T11:10:01Z,1594897802,2020,11,10,198.4653,198.4653,79.55787,4.87728,-999.00,-999.00,-999.0,no,no,no,300534060356590,NOMAD,AWI/USIABP,MOSAiC,North
2020-07-16T11:19:58Z,1594898398,2020,11,20,198.4722,198.4722,79.55706,4.87537,-999.00,-999.00,-999.0,no,no,no,300534060356590,NOMAD,AWI/USIABP,MOSAiC,North
2020-07-16T11:30:02Z,1594899003,2020,11,30,198.4792,198.4792,79.55625,4.87319,-999.00,-999.00,-999.0,no,no,no,300534060356590,NOMAD,AWI/USIABP,MOSAiC,North
2020-07-16T11:39:59Z,1594899599,2020,11,40,198.4861,198.4861,79.55543,4.87048,-999.00,-999.00,-999.0,no,no,no,300534060356590,NOMAD,AWI/USIABP,MOSAiC,North
2020-07-16T11:50:03Z,1594900204,2020,11,50,198.4931,198.4931,79.55466,4.86795,-999.00,-999.00,-999.0,no,no,no,300534060356590,NOMAD,AWI/USIABP,MOSAiC,North
2020-07-16T12:00:00Z,1594900800,2020,12,0,198.5,198.5,79.55389,4.86557,-999.00,-999.00,-999.0,no,no,no,300534060356590,NOMAD,AWI/USIABP,MOSAiC,North
2020-07-16T12:09:56Z,1594901396,2020,12,10,198.5069,198.5069,79.55305,4.86327,-999.00,-999.00,-999.0,no,no,no,300534060356590,NOMAD,AWI/USIABP,MOSAiC,North
2020-07-16T12:20:00Z,1594902001,2020,12,20,198.5139,198.5139,79.55224,4.86119,-999.00,-999.00,-999.0,no,no,no,300534060356590,NOMAD,AWI/USIABP,MOSAiC,North
2020-07-16T12:29:57Z,1594902597,2020,12,30,198.5208,198.5208,79.55148,4.85884,-999.00,-999.00,-999.0,no,no,no,300534060356590,NOMAD,AWI/USIABP,MOSAiC,North
2020-07-16T12:40:01Z,1594903202,2020,12,40,198.5278,198.5278,79.55071,4.85574,-999.00,-999.00,-999.0,no,no,no,300534060356590,NOMAD,AWI/USIABP,MOSAiC,North
2020-07-16T12:49:58Z,1594903798,2020,12,50,198.5347,198.5347,79.55001,4.85294,-999.00,-999.00,-999.0,no,no,no,300534060356590,NOMAD,AWI/USIABP,MOSAiC,North
2020-07-16T13:00:02Z,1594904403,2020,13,0,198.5417,198.5417,79.54929,4.85008,-999.00,-999.00,-999.0,no,no,no,300534060356590,NOMAD,AWI/USIABP,MOSAiC,North
2020-07-16T13:09:59Z,1594904999,2020,13,10,198.5486,198.5486,79.54859,4.84747,-999.00,-999.00,-999.0,no,no,no,300534060356590,NOMAD,AWI/USIABP,MOSAiC,North
2020-07-16T13:20:03Z,1594905604,2020,13,20,198.5556,198.5556,79.54781,4.8448,-999.00,-999.00,-999.0,no,no,no,300534060356590,NOMAD,AWI/USIABP,MOSAiC,North
2020-07-16T13:30:00Z,1594906200,2020,13,30,198.5625,198.5625,79.5471,4.84272,-999.00,-999.00,-999.0,no,no,no,300534060356590,NOMAD,AWI/USIABP,MOSAiC,North
2020-07-16T13:39:56Z,1594906796,2020,13,40,198.5694,198.5694,79.54655,4.83952,-999.00,-999.00,-999.0,no,no,no,300534060356590,NOMAD,AWI/USIABP,MOSAiC,North
2020-07-16T13:50:00Z,1594907401,2020,13,50,198.5764,198.5764,79.54602,4.83662,-999.00,-999.00,-999.0,no,no,no,300534060356590,NOMAD,AWI/USIABP,MOSAiC,North
2020-07-16T13:59:57Z,1594907997,2020,14,0,198.5833,198.5833,79.54532,4.83461,-999.00,-999.00,-999.0,no,no,no,300534060356590,NOMAD,AWI/USIABP,MOSAiC,North
2020-07-16T14:10:01Z,1594908602,2020,14,10,198.5903,198.5903,79.54474,4.83217,-999.00,-999.00,-999.0,no,no,no,300534060356590,NOMAD,AWI/USIABP,MOSAiC,North
2020-07-16T14:19:58Z,1594909198,2020,14,20,198.5972,198.5972,79.54424,4.83087,-999.00,-999.00,-999.0,no,no,no,300534060356590,NOMAD,AWI/USIABP,MOSAiC,North
2020-07-16T14:30:02Z,1594909803,2020,14,30,198.6042,198.6042,79.54382,4.83011,-999.00,-999.00,-999.0,no,no,no,300534060356590,NOMAD,AWI/USIABP,MOSAiC,North
2020-07-16T14:39:59Z,1594910399,2020,14,40,198.6111,198.6111,79.54346,4.82869,-999.00,-999.00,-999.0,no,no,no,300534060356590,NOMAD,AWI/USIABP,MOSAiC,North
2020-07-16T14:50:03Z,1594911004,2020,14,50,198.6181,198.6181,79.54309,4.82721,-999.00,-999.00,-999.0,no,no,no,300534060356590,NOMAD,AWI/USIABP,MOSAiC,North
2020-07-16T15:00:00Z,1594911600,2020,15,0,198.625,198.625,79.54273,4.82491,-999.00,-999.00,-999.0,no,no,no,300534060356590,NOMAD,AWI/USIABP,MOSAiC,North
2020-07-16T15:09:56Z,1594912196,2020,15,10,198.6319,198.6319,79.54251,4.82163,-999.00,-999.00,-999.0,no,no,no,300534060356590,NOMAD,AWI/USIABP,MOSAiC,North
2020-07-16T15:20:00Z,1594912801,2020,15,20,198.6389,198.6389,79.54231,4.81962,-999.00,-999.00,-999.0,no,no,no,300534060356590,NOMAD,AWI/USIABP,MOSAiC,North
2020-07-16T15:29:57Z,1594913397,2020,15,30,198.6458,198.6458,79.54222,4.81807,-999.00,-999.00,-999.0,no,no,no,300534060356590,NOMAD,AWI/USIABP,MOSAiC,North
2020-07-16T15:40:01Z,1594914002,2020,15,40,198.6528,198.6528,79.54228,4.81598,-999.00,-999.00,-999.0,no,no,no,300534060356590,NOMAD,AWI/USIABP,MOSAiC,North
2020-07-16T15:49:58Z,1594914598,2020,15,50,198.6597,198.6597,79.5424,4.8145,-999.00,-999.00,-999.0,no,no,no,300534060356590,NOMAD,AWI/USIABP,MOSAiC,North
2020-07-16T16:00:02Z,1594915203,2020,16,0,198.6667,198.6667,79.54241,4.81379,-999.00,-999.00,-999.0,no,no,no,300534060356590,NOMAD,AWI/USIABP,MOSAiC,North
2020-07-16T16:09:59Z,1594915799,2020,16,10,198.6736,198.6736,79.54239,4.813,-999.00,-999.00,-999.0,no,no,no,300534060356590,NOMAD,AWI/USIABP,MOSAiC,North
2020-07-16T16:20:03Z,1594916404,2020,16,20,198.6806,198.6806,79.54232,4.81219,-999.00,-999.00,-999.0,no,no,no,300534060356590,NOMAD,AWI/USIABP,MOSAiC,North
2020-07-16T16:30:00Z,1594917000,2020,16,30,198.6875,198.6875,79.54232,4.81192,-999.00,-999.00,-999.0,no,no,no,300534060356590,NOMAD,AWI/USIABP,MOSAiC,North
2020-07-16T16:39:56Z,1594917596,2020,16,40,198.6944,198.6944,79.5424,4.81098,-999.00,-999.00,-999.0,no,no,no,300534060356590,NOMAD,AWI/USIABP,MOSAiC,North
2020-07-16T16:50:00Z,1594918201,2020,16,50,198.7014,198.7014,79.54253,4.8106,-999.00,-999.00,-999.0,no,no,no,300534060356590,NOMAD,AWI/USIABP,MOSAiC,North
2020-07-16T16:59:57Z,1594918797,2020,17,0,198.7083,198.7083,79.54268,4.81072,-999.00,-999.00,-999.0,no,no,no,300534060356590,NOMAD,AWI/USIABP,MOSAiC,North
2020-07-16T17:10:01Z,1594919402,2020,17,10,198.7153,198.7153,79.54289,4.81145,-999.00,-999.00,-999.0,no,no,no,300534060356590,NOMAD,AWI/USIABP,MOSAiC,North
2020-07-16T17:19:58Z,1594919998,2020,17,20,198.7222,198.7222,79.54299,4.81297,-999.00,-999.00,-999.0,no,no,no,300534060356590,NOMAD,AWI/USIABP,MOSAiC,North
2020-07-16T17:30:02Z,1594920603,2020,17,30,198.7292,198.7292,79.54316,4.81475,-999.00,-999.00,-999.0,no,no,no,300534060356590,NOMAD,AWI/USIABP,MOSAiC,North
2020-07-16T17:39:59Z,1594921199,2020,17,40,198.7361,198.7361,79.54321,4.81756,-999.00,-999.00,-999.0,no,no,no,300534060356590,NOMAD,AWI/USIABP,MOSAiC,North
2020-07-16T17:50:03Z,1594921804,2020,17,50,198.7431,198.7431,79.54321,4.82018,-999.00,-999.00,-999.0,no,no,no,300534060356590,NOMAD,AWI/USIABP,MOSAiC,North
2020-07-16T18:00:00Z,1594922400,2020,18,0,198.75,198.75,79.54321,4.82234,-999.00,-999.00,-999.0,no,no,no,300534060356590,NOMAD,AWI/USIABP,MOSAiC,North
2020-07-16T18:09:56Z,1594922996,2020,18,10,198.7569,198.7569,79.54327,4.82495,-999.00,-999.00,-999.0,no,no,no,300534060356590,NOMAD,AWI/USIABP,MOSAiC,North
2020-07-16T18:20:00Z,1594923601,2020,18,20,198.7639,198.7639,79.54329,4.82745,-999.00,-999.00,-999.0,no,no,no,300534060356590,NOMAD,AWI/USIABP,MOSAiC,North
2020-07-16T18:29:57Z,1594924197,2020,18,30,198.7708,198.7708,79.54336,4.82992,-999.00,-999.00,-999.0,no,no,no,300534060356590,NOMAD,AWI/USIABP,MOSAiC,North
2020-07-16T18:40:01Z,1594924802,2020,18,40,198.7778,198.7778,79.54358,4.83259,-999.00,-999.00,-999.0,no,no,no,300534060356590,NOMAD,AWI/USIABP,MOSAiC,North
2020-07-16T18:49:58Z,1594925398,2020,18,50,198.7847,198.7847,79.54369,4.83501,-999.00,-999.00,-999.0,no,no,no,300534060356590,NOMAD,AWI/USIABP,MOSAiC,North
2020-07-16T19:00:02Z,1594926003,2020,19,0,198.7917,198.7917,79.54372,4.83753,-999.00,-999.00,-999.0,no,no,no,300534060356590,NOMAD,AWI/USIABP,MOSAiC,North
2020-07-16T19:09:59Z,1594926599,2020,19,10,198.7986,198.7986,79.54367,4.84036,-999.00,-999.00,-999.0,no,no,no,300534060356590,NOMAD,AWI/USIABP,MOSAiC,North
2020-07-16T19:20:03Z,1594927204,2020,19,20,198.8056,198.8056,79.54366,4.84351,-999.00,-999.00,-999.0,no,no,no,300534060356590,NOMAD,AWI/USIABP,MOSAiC,North
2020-07-16T19:30:00Z,1594927800,2020,19,30,198.8125,198.8125,79.54369,4.84689,-999.00,-999.00,-999.0,no,no,no,300534060356590,NOMAD,AWI/USIABP,MOSAiC,North
2020-07-16T19:39:56Z,1594928396,2020,19,40,198.8194,198.8194,79.54363,4.85045,-999.00,-999.00,-999.0,no,no,no,300534060356590,NOMAD,AWI/USIABP,MOSAiC,North
2020-07-16T19:50:00Z,1594929001,2020,19,50,198.8264,198.8264,79.54368,4.85343,-999.00,-999.00,-999.0,no,no,no,300534060356590,NOMAD,AWI/USIABP,MOSAiC,North
2020-07-16T19:59:57Z,1594929597,2020,20,0,198.8333,198.8333,79.54366,4.85644,-999.00,-999.00,-999.0,no,no,no,300534060356590,NOMAD,AWI/USIABP,MOSAiC,North
2020-07-16T20:10:01Z,1594930202,2020,20,10,198.8403,198.8403,79.54352,4.8596,-999.00,-999.00,-999.0,no,no,no,300534060356590,NOMAD,AWI/USIABP,MOSAiC,North
2020-07-16T20:19:58Z,1594930798,2020,20,20,198.8472,198.8472,79.54341,4.86276,-999.00,-999.00,-999.0,no,no,no,300534060356590,NOMAD,AWI/USIABP,MOSAiC,North
2020-07-16T20:30:02Z,1594931403,2020,20,30,198.8542,198.8542,79.54318,4.86562,-999.00,-999.00,-999.0,no,no,no,300534060356590,NOMAD,AWI/USIABP,MOSAiC,North
2020-07-16T20:39:59Z,1594931999,2020,20,40,198.8611,198.8611,79.54302,4.86804,-999.00,-999.00,-999.0,no,no,no,300534060356590,NOMAD,AWI/USIABP,MOSAiC,North
2020-07-16T20:50:03Z,1594932604,2020,20,50,198.8681,198.8681,79.54309,4.86998,-999.00,-999.00,-999.0,no,no,no,300534060356590,NOMAD,AWI/USIABP,MOSAiC,North
2020-07-16T21:00:00Z,1594933200,2020,21,0,198.875,198.875,79.54308,4.87212,-999.00,-999.00,-999.0,no,no,no,300534060356590,NOMAD,AWI/USIABP,MOSAiC,North
2020-07-16T21:09:56Z,1594933796,2020,21,10,198.8819,198.8819,79.54302,4.87412,-999.00,-999.00,-999.0,no,no,no,300534060356590,NOMAD,AWI/USIABP,MOSAiC,North
2020-07-16T21:20:00Z,1594934401,2020,21,20,198.8889,198.8889,79.54303,4.87629,-999.00,-999.00,-999.0,no,no,no,300534060356590,NOMAD,AWI/USIABP,MOSAiC,North
2020-07-16T21:29:57Z,1594934997,2020,21,30,198.8958,198.8958,79.5431,4.87828,-999.00,-999.00,-999.0,no,no,no,300534060356590,NOMAD,AWI/USIABP,MOSAiC,North
2020-07-16T21:40:01Z,1594935602,2020,21,40,198.9028,198.9028,79.54312,4.88084,-999.00,-999.00,-999.0,no,no,no,300534060356590,NOMAD,AWI/USIABP,MOSAiC,North
2020-07-16T21:49:58Z,1594936198,2020,21,50,198.9097,198.9097,79.54329,4.88279,-999.00,-999.00,-999.0,no,no,no,300534060356590,NOMAD,AWI/USIABP,MOSAiC,North
2020-07-16T22:00:02Z,1594936803,2020,22,0,198.9167,198.9167,79.54356,4.8848,-999.00,-999.00,-999.0,no,no,no,300534060356590,NOMAD,AWI/USIABP,MOSAiC,North
2020-07-16T22:09:59Z,1594937399,2020,22,10,198.9236,198.9236,79.54382,4.88657,-999.00,-999.00,-999.0,no,no,no,300534060356590,NOMAD,AWI/USIABP,MOSAiC,North
2020-07-16T22:20:03Z,1594938004,2020,22,20,198.9306,198.9306,79.54427,4.88723,-999.00,-999.00,-999.0,no,no,no,300534060356590,NOMAD,AWI/USIABP,MOSAiC,North
2020-07-16T22:30:00Z,1594938600,2020,22,30,198.9375,198.9375,79.54456,4.88935,-999.00,-999.00,-999.0,no,no,no,300534060356590,NOMAD,AWI/USIABP,MOSAiC,North
2020-07-16T22:39:56Z,1594939196,2020,22,40,198.9444,198.9444,79.54489,4.89084,-999.00,-999.00,-999.0,no,no,no,300534060356590,NOMAD,AWI/USIABP,MOSAiC,North
2020-07-16T22:50:00Z,1594939801,2020,22,50,198.9514,198.9514,79.54512,4.89294,-999.00,-999.00,-999.0,no,no,no,300534060356590,NOMAD,AWI/USIABP,MOSAiC,North
2020-07-16T22:59:57Z,1594940397,2020,23,0,198.9583,198.9583,79.54525,4.89549,-999.00,-999.00,-999.0,no,no,no,300534060356590,NOMAD,AWI/USIABP,MOSAiC,North
2020-07-16T23:10:01Z,1594941002,2020,23,10,198.9653,198.9653,79.5454,4.89767,-999.00,-999.00,-999.0,no,no,no,300534060356590,NOMAD,AWI/USIABP,MOSAiC,North
2020-07-16T23:19:58Z,1594941598,2020,23,20,198.9722,198.9722,79.54554,4.89897,-999.00,-999.00,-999.0,no,no,no,300534060356590,NOMAD,AWI/USIABP,MOSAiC,North
2020-07-16T23:30:02Z,1594942203,2020,23,30,198.9792,198.9792,79.54567,4.89995,-999.00,-999.00,-999.0,no,no,no,300534060356590,NOMAD,AWI/USIABP,MOSAiC,North
2020-07-16T23:39:59Z,1594942799,2020,23,40,198.9861,198.9861,79.54584,4.90089,-999.00,-999.00,-999.0,no,no,no,300534060356590,NOMAD,AWI/USIABP,MOSAiC,North
2020-07-16T23:50:03Z,1594943404,2020,23,50,198.9931,198.9931,79.54596,4.90173,-999.00,-999.00,-999.0,no,no,no,300534060356590,NOMAD,AWI/USIABP,MOSAiC,North
2020-07-17T00:00:00Z,1594944000,2020,0,0,199.0,199.0,79.54612,4.9017,-999.00,-999.00,-999.0,no,no,no,300534060356590,NOMAD,AWI/USIABP,MOSAiC,North
2020-07-17T00:09:56Z,1594944596,2020,0,10,199.0069,199.0069,79.54626,4.90199,-999.00,-999.00,-999.0,no,no,no,300534060356590,NOMAD,AWI/USIABP,MOSAiC,North
2020-07-17T00:20:00Z,1594945201,2020,0,20,199.0139,199.0139,79.54634,4.90245,-999.00,-999.00,-999.0,no,no,no,300534060356590,NOMAD,AWI/USIABP,MOSAiC,North
2020-07-17T00:29:57Z,1594945797,2020,0,30,199.0208,199.0208,79.54632,4.9034,-999.00,-999.00,-999.0,no,no,no,300534060356590,NOMAD,AWI/USIABP,MOSAiC,North
2020-07-17T00:40:01Z,1594946402,2020,0,40,199.0278,199.0278,79.54646,4.90363,-999.00,-999.00,-999.0,no,no,no,300534060356590,NOMAD,AWI/USIABP,MOSAiC,North
2020-07-17T00:49:58Z,1594946998,2020,0,50,199.0347,199.0347,79.54652,4.90418,-999.00,-999.00,-999.0,no,no,no,300534060356590,NOMAD,AWI/USIABP,MOSAiC,North
2020-07-17T01:00:02Z,1594947603,2020,1,0,199.0417,199.0417,79.54655,4.90427,-999.00,-999.00,-999.0,no,no,no,300534060356590,NOMAD,AWI/USIABP,MOSAiC,North
2020-07-17T01:09:59Z,1594948199,2020,1,10,199.0486,199.0486,79.54658,4.90415,-999.00,-999.00,-999.0,no,no,no,300534060356590,NOMAD,AWI/USIABP,MOSAiC,North
2020-07-17T01:20:03Z,1594948804,2020,1,20,199.0556,199.0556,79.54653,4.90416,-999.00,-999.00,-999.0,no,no,no,300534060356590,NOMAD,AWI/USIABP,MOSAiC,North
2020-07-17T01:30:00Z,1594949400,2020,1,30,199.0625,199.0625,79.54645,4.90423,-999.00,-999.00,-999.0,no,no,no,300534060356590,NOMAD,AWI/USIABP,MOSAiC,North
2020-07-17T01:39:56Z,1594949996,2020,1,40,199.0694,199.0694,79.54645,4.90396,-999.00,-999.00,-999.0,no,no,no,300534060356590,NOMAD,AWI/USIABP,MOSAiC,North